Flag for U.S.A. Weather past 2 weeks in Huntsville, Alabama, U.S.A.

Now
64 °F

More clouds than sun.


Feels Like: 64 °F
Forecast: 51 / 63 °F
Wind: 8 mph from East

Location: Huntsville International / Jones Field


UV Index: 0 (Low)

Visibility: 10 mi


Pressure: 30.22 "Hg

Humidity: 49%

Dew point: 44 °F

Location of HuntsvilleLocation

Historic Weather in Huntsville

°F

Huntsville temperature yesterday

Maximum temperature yesterday: 69 °F (at 4:53 PM)
Minimum temperature yesterday: 44 °F (at 3:53 AM)
Average temperature yesterday: 57 °F

Past Weeks' High & Low Weather Summary

 TemperatureHumidityPressure
High81 °F (Apr 13, 2:53 PM)100% (Apr 6, 10:01 PM)30.37 "Hg (Apr 6, 10:01 PM)
Low33 °F (Apr 16, 5:53 AM)26% (Apr 16, 3:53 PM)29.59 "Hg (Apr 7, 9:53 AM)
Average59 °F64%30.02 "Hg
* Reported Apr 3 12:53 PM — Apr 18 12:53 PM, Huntsville, Weather by CustomWeather, © 2014

Note: Actual official high and low records may vary slightly from our data, if they occured in-between our weather recording intervals... More about our weather records

Advertising

Historic Weather Conditions — Data for Previous 24 hours

 ConditionsComfort  
Time TempWeatherWind HumidityBarometerVisibility
12:53 PM
Apr 18
62 °FOvercast.8 mph52%30.24 "Hg10 mi
11:53 AM60 °FMore clouds than sun.7 mph56%30.25 "Hg10 mi
10:53 AM59 °FMore clouds than sun.10 mph56%30.27 "Hg10 mi
9:53 AM59 °FMostly cloudy.14 mph51%30.28 "Hg10 mi
8:53 AM59 °FMostly cloudy.13 mph48%30.27 "Hg10 mi
7:53 AM59 °FCloudy.8 mph48%30.27 "Hg10 mi
6:53 AM58 °FMostly cloudy.9 mph50%30.25 "Hg10 mi
5:53 AM57 °FOvercast.7 mph58%30.23 "Hg10 mi
4:53 AM57 °FPassing clouds.7 mph60%30.23 "Hg10 mi
3:53 AM57 °FPassing clouds.6 mph64%30.23 "Hg10 mi
2:53 AM58 °FPassing clouds.8 mph62%30.24 "Hg10 mi
1:53 AM59 °FOvercast.5 mph62%30.25 "Hg10 mi
12:53 AM60 °FOvercast.7 mph60%30.27 "Hg10 mi
11:53 PM
Apr 17
60 °FOvercast.8 mph62%30.26 "Hg10 mi
10:53 PM59 °FOvercast.7 mph62%30.24 "Hg10 mi
9:53 PM59 °FOvercast.7 mph60%30.25 "Hg10 mi
8:53 PM61 °FHigh level clouds.5 mph56%30.24 "Hg10 mi
7:53 PM62 °FHigh level clouds.6 mph54%30.24 "Hg10 mi
6:53 PM65 °FOvercast.6 mph51%30.24 "Hg10 mi
5:53 PM68 °FPartly sunny.9 mph40%30.24 "Hg10 mi
4:53 PM69 °FPartly sunny.10 mph36%30.24 "Hg10 mi
3:53 PM68 °FPartly sunny.7 mph36%30.24 "Hg10 mi
2:53 PM68 °FPartly sunny.10 mph39%30.28 "Hg10 mi
Weather by CustomWeather, © 2014

See weather overview